Tracking 32938 objects as of 14-Jan-2026
HD Live streaming from Space Station
objects crossing your sky now

METEOR 2-5 DEB

Track METEOR 2-5 DEB now!
10-day predictions


NORAD ID: 39608
Int'l Code: 1979-095CK
Perigee: 754.3 km
Apogee: 774.6 km
Inclination: 81.2 °
Period: 100.0 minutes
Semi major axis: 7135 km
RCS: Unknown
Launch date: October 31, 1979
Source: Commonwealth of Independent States (former USSR) (CIS)
Launch site: PLESETSK MISSILE AND SPACE COMPLEX (PKMTR)

Note: This is SATELLITE DEBRIS
Your satellite tracking list
Your tracking list is empty




NASA's NSSDC Master Catalog

Two Line Element Set (TLE):
1 39608U 79095CK  26009.49157733  .00009806  00000-0  30821-2 0  9991
2 39608  81.1995 288.4238 0014212 119.9290 240.3311 14.40353315579810
Source of the keplerian elements: AFSPC